カタログに戻る

STARLINK-5874

運用中通信SSO
NORAD 56353·PAYLOAD·🇺🇸 United States

打ち上げ Apr 27, 2023 から Vandenberg Space Force Base

Loading…

次のパス (今後24時間)

TLE

最新Source: CelesTrak SupGP

元期: Sep 15, 2026, 02:13 UTC

1 56353C 23058AN  26258.09284722  .00547480  00000+0  29488-1 0  2584
2 56353  97.2849 252.2191 0001632  88.3597 349.0559 15.14623459    13

AllMySatでSTARLINK-5874をリアルタイム追跡

Download on the App Store